Regional Weather Roundup
Issued by NWS

Home | Current Version | Previous Version | Text Only | Print | Product List | Glossary On
Versions: 1 2 3 4 5 6 7 8 9 10 11 12 13 14 15 16 17 18 19 20 21 22 23 24 25 26 27 28 29 30 31 32 33 34 35 36 37 38 39 40 41 42 43 44 45 46 47 48 49 50
000
ASUS44 KLUB 261101
RWRTX
WEST TEXAS WEATHER ROUNDUP
NATIONAL WEATHER SERVICE LUBBOCK TX
600 AM CDT THU MAY 26 2016

NOTE: "FAIR" INDICATES FEW OR NO CLOUDS BELOW 12,000 FEET WITH NO
SIGNIFICANT WEATHER AND/OR OBSTRUCTIONS TO VISIBILITY.

TXZ004-006>008-010-012-014-016-OKZ002-261200-
TEXAS PANHANDLE/OKLAHOMA PANHANDLE

CITY           SKY/WX    TMP DP  RH WIND       PRES   REMARKS
AMARILLO       CLEAR     60  50  69 S9        29.88R
BORGER         CLEAR     68  47  46 SW6       29.83S
CANADIAN       CLEAR     61  54  76 E5        29.82R
DALHART        CLEAR     52  35  52 NW5       29.88F
DUMAS          PTCLDY    59  31  33 SW12      29.86R
GUYMON         CLOUDY    55  36  48 W8        29.83R
HEREFORD       CLEAR     55  42  62 CALM      29.90S
$$

TXZ026-029-035-045-048-261200-
SOUTHERN PANHANDLE/SOUTH PLAINS/ROLLING PLAINS

CITY           SKY/WX    TMP DP  RH WIND       PRES   REMARKS
CHILDRESS      MOCLDY    72  70  93 S9        29.82R FOG
LUBBOCK        MOCLDY    72  64  76 S18       29.86F
SNYDER           N/A     72  64  75 S6        29.90S
$$

TXZ052-054-060>062-072-078-127-140-154-169-261200-
PERMIAN BASIN/CONCHO VALLEY/BIG COUNTRY/EDWARDS PLATEAU

CITY           SKY/WX    TMP DP  RH WIND       PRES   REMARKS
ABILENE        CLOUDY    80  53  39 SE17      29.85F
BROWNWOOD      LGT RAIN  72  66  83 SE9       29.90F
JUNCTION       CLOUDY    77  72  84 S13       29.91F
MIDLAND        CLEAR     75  65  70 S12       29.88S
ODESSA         CLEAR     75  65  70 S18       29.89S
SAN ANGELO     CLOUDY    67  64  90 SE3       29.88R
WINK           CLEAR     70  67  90 MISG      29.87S
$$

TXZ055-058-074-075-080-082-261200-
FAR WEST/SOUTHWEST MOUNTAINS/TRANS PECOS

CITY           SKY/WX    TMP DP  RH WIND       PRES   REMARKS
DRYDEN           N/A     78  63  59 SW8       29.87F
EL PASO        CLEAR     72  23  16 W17G24    29.95S
FORT STOCKTON  PTCLDY    73  56  54 S9        29.90S
MARFA          CLEAR     63  45  51 SW10      30.06S
PRESIDIO       FAIR      79  46  32 SE3       29.94S
$$

TXZ014-016-019-021>030-083-261200
TEXAS TECH WEST TEXAS MESONET/TEXAS PANHANDLE/NORTHERN SOUTH PLAINS

CITY           SKY/WX    TMP DP  RH WIND       PRES   REMARKS
ABERNATHY 5ENE   N/A     62  59  91 S5        29.90S
AMARILLO 9NNE    N/A     60  49  68 S10       29.86R
AMARILLO 7SSE    N/A     63  53  68 S12       29.89S
AMHERST 1NE      N/A     65  57  76 SW9       29.90F
BOOTLEG 11WNW    N/A     49  35  56 SW14      29.94S
CANADIAN 6E      N/A     62  57  82 E2        29.82R
CAPROCK CYN SP   N/A     69  66  89 S13       29.85S
CHILDRESS 2NNE   N/A     72  69  89 SE9       29.84S
CLARENDON 2WSW   N/A     63  59  86 S8        29.87R
CLAUDE 12SW      N/A     66  59  77 SE7       29.89S
DIMMITT 2NE      N/A     62  54  74 S10       29.91S
FLOYDADA 2NNE    N/A     67  64  90 S10       29.88S
FRIONA 2NE       N/A     57  47  70 SW8       29.92S
GOODLETT 3W      N/A     74  69  86 SE7       29.82R
HART 3N          N/A     61  55  83 S8        29.91S
HEREFORD 2NW     N/A     59  46  61 SW9       29.92F
MCLEAN 1E        N/A     62  58  84 SE7       29.86R
MEMPHIS 1NE      N/A     65  63  93 E3        29.84S
MULESHOE 2SSW    N/A     58  49  70 W7        29.92R
OLTON 6S         N/A     61  56  84 S8        29.89F
PALO DURO SP     N/A     64  54  70 S5        29.90R
PAMPA 2E         N/A     60  50  67 SW8       29.85F
PLAINVIEW 1S     N/A     64  61  91 S5        29.89S
SILVERTON 7ESE   N/A     66  62  89 SW13      29.86S
TULIA 2ENE       N/A     61  57  86 S8        29.89F
TURKEY 2WSW      N/A     69  67  92 SE6       29.85R
UMBARGER 3NNE    N/A     62  53  73 SW9       29.90R
$$

TXZ033>036-039>041-045>048-261200
TEXAS TECH WEST TEXAS MESONET/SOUTH PLAINS

CITY           SKY/WX    TMP DP  RH WIND       PRES   REMARKS
AIKEN 3WSW       N/A     65  64  96 S8        29.90S
ANDREWS 2NE      N/A     71  64  79 S13G18    29.91R
ANTON 6SSW       N/A     70  63  78 S13       29.88S
BROWNFIELD 2S    N/A     69  60  75 S14       29.89S
DENVR CTY 7WNW   N/A     65  61  86 S10       29.91S
GAIL 2ESE        N/A     71  62  72 SE7       29.88F
LAMESA 2SE       N/A     71  61  72 S14       29.89R
LEVELLAND 4S     N/A     69  61  76 S13       29.89S
LUBBOCK 3WNW     N/A     73  63  70 S15G22    29.88S
MORTON 1ENE      N/A     65  56  74 SW12      29.90F
ODONNELL 1N      N/A     71  59  65 S14G22    29.88S
PLAINS 3N        N/A     65  62  88 S7        29.91S
RALLS 1SE        N/A     72  63  74 S18       29.89S
REESE CENTER     N/A     70  63  78 S15       29.88F
SEAGRAVES 1SW    N/A     67  63  86 SE9       29.90R
SEMINOLE 2NNE    N/A     69  59  69 S10       29.90S
SLATON 2NE       N/A     71  64  79 S17       29.88S
SNYDER 3E        N/A     66  62  87 S7        29.90R
SUNDOWN 8SW      N/A     67  62  82 S13       29.89F
TAHOKA 3NNE      N/A     71  63  76 S12       29.89S
WOLFFORTH 6SSW   N/A     71  63  76 S10       29.88S
$$

TXZ031-032-036>038-042>044-261200-
TEXAS TECH WEST TEXAS MESONET/ROLLING PLAINS

CITY           SKY/WX    TMP DP  RH WIND       PRES   REMARKS
ASPERMONT 3NE    N/A     76  71  84 SE12      29.83F
FLUVANNA 3WNW    N/A     72  66  83 SE14      29.89F
GUTHRIE 10WSW    N/A     72  69  90 S10       29.83F
HASKELL 1NW      N/A     75  72  91 S7        29.86R
JAYTON 1SSE      N/A     76  69  78 S10       29.85S
KNOX CITY 3NW    N/A     76  70  82 S8G15     29.83F
LK A HENRY 1NW   N/A     77  63  60 S18       29.86F
NORTHFIELD 1S    N/A     71  69  93 SE6       29.83F
ODELL 4ENE       N/A     74  73  96 SE9       29.84S
PADUCAH 10SW     N/A     73  70  90 S14       29.83S
POST 1NE         N/A     73  63  70 S13G20    29.86F
RRING SPRGS 3N   N/A     71  68  90 S12       29.85S
SEYMOUR 3NW      N/A     75  71  88 SE8       29.84F
SPUR 1W          N/A     72  67  84 S8        29.86S
WEINERT 2NNE     N/A     75  73  92 S10       29.85S
WHITE RVR 6NE    N/A     73  65  76 S17G25    29.86S
$$

TXZ052-054-060>062-072-078-127-140-154-169-261200-
TEXAS TECH WEST TEXAS MESONET/PERMIAN BASIN/
CONCHO VALLEY/BIG COUNTRY/EDWARDS PLATEAU

CITY           SKY/WX    TMP DP  RH WIND       PRES   REMARKS
COYANOSA 2N      N/A     72  57  59 S8        29.88S
JUNCTION 1SSW    N/A     77  73  87 S3        29.93S
MERTZON 3NNE     N/A     65  64  94 SW1       29.91S
SAN ANGELO 7NW   N/A     68  63  84 SE3       29.89R
STRLNG CT 4WSW   N/A     69  59  70 E1        29.91S
ST LAWRNCE 5SW   N/A     71  63  76 SE9       29.91S
SWEETWATR 11SW   N/A     77  55  46 SE6       29.91F
WALL 1E          N/A     67  63  87 E9G17     29.90F
$$

TXZ055-058-074-075-080-082-261200-
TEXAS TECH WEST TEXAS MESONET/FAR WEST/SOUTHWEST MOUNTAINS/TRANS PECOS

CITY           SKY/WX    TMP DP  RH WIND       PRES   REMARKS
PRSMN GAP BBNP   N/A     79  49  34 S12       29.94S
GUADLPE MTN NP   N/A     68  15  13 W20       30.05S
$$




USA.gov is the U.S. government's official web portal to all federal, state and local government web resources and services.